This demonstration page uses our WeatherBlox Daily Observations layout. Learn more.

Left ArrowRight Arrow

44.8408, -93.29828

Hourly Observations for August 1, 2017

Temp ( °F °C ) Dew Point ( °F °C ) Humidity (%) Winds ( mph kmh ) Pressure ( in mb ) Visibility ( mi km ) Precip ( " mm )
12:53 am 00:53 Clear 74 23.3 63 17.2 69 69 WSW 5 7 30.06 1018 10 16 0.00 0.00
1:53 am 01:53 Clear 72 22.2 63 17.2 73 73 Calm 30.06 1018 10 16 0.00 0.00
2:53 am 02:53 Clear 71 21.7 63 17.2 76 76 W 3 6 30.06 1018 10 16 0.00 0.00
3:53 am 03:53 Clear 70 21.1 62 16.7 76 76 SSW 3 6 30.04 1017 10 16 0.00 0.00
4:53 am 04:53 Clear 69 20.6 62 16.7 78 78 WSW 3 6 30.05 1018 10 16 0.00 0.00
5:53 am 05:53 Mostly Clear 67 19.4 61 16.1 81 81 WSW 3 6 30.06 1018 10 16 0.00 0.00
6:53 am 06:53 Partly Cloudy 68 20 60 15.6 76 76 SW 7 11 30.06 1018 10 16 0.00 0.00
7:53 am 07:53 Partly Cloudy 70 21.1 60 15.6 71 71 SW 8 13 30.06 1018 10 16 0.00 0.00
8:53 am 08:53 Mostly Cloudy 72 22.2 60 15.6 66 66 SW 9 15 30.06 1018 10 16 0.00 0.00
9:53 am 09:53 Mostly Cloudy 74 23.3 60 15.6 62 62 SW 7 11 30.03 1017 10 16 0.00 0.00
10:53 am 10:53 Partly Cloudy 79 26.1 63 17.2 58 58 WSW 9 15 30.02 1017 10 16 0.00 0.00
11:53 am 11:53 Mostly Sunny 82 27.8 65 18.3 56 56 SW 7 11 30.01 1016 10 16 0.00 0.00
12:53 pm 12:53 Partly Cloudy 85 29.4 66 18.9 53 53 WSW 10 17 30.00 1016 10 16 0.00 0.00
1:53 pm 13:53 Partly Cloudy 85 29.4 65 18.3 51 51 W 9 15 29.99 1016 10 16 0.00 0.00
2:53 pm 14:53 Partly Cloudy 86 30 65 18.3 49 49 W 9 15 29.98 1015 10 16 0.00 0.00
3:53 pm 15:53 Partly Cloudy 88 31.1 64 17.8 45 45 WNW 12 19 29.96 1015 10 16 0.00 0.00
4:53 pm 16:53 Partly Cloudy 88 31.1 59 15 38 38 NNW 12 19 29.95 1014 10 16 0.00 0.00
5:53 pm 17:53 Partly Cloudy 87 30.6 56 13.3 35 35 NNW 13 20 29.96 1015 10 16 0.00 0.00
6:53 pm 18:53 Mostly Cloudy 84 28.9 57 13.9 40 40 NNW 12 19 29.98 1015 10 16 0.00 0.00
7:53 pm 19:53 Partly Cloudy 82 27.8 57 13.9 42 42 N 9 15 29.99 1016 10 16 0.00 0.00
8:53 pm 20:53 Partly Cloudy 79 26.1 56 13.3 45 45 N 6 9 29.99 1016 10 16 0.00 0.00
9:53 pm 21:53 Partly Cloudy 78 25.6 55 12.8 45 45 Calm 30.02 1017 10 16 0.00 0.00
10:53 pm 22:53 Mostly Cloudy 77 25 54 12.2 45 45 N 3 6 30.02 1017 10 16 0.00 0.00
11:53 pm 23:53 Cloudy 74 23.3 60 15.6 62 62 N 13 20 30.03 1017 10 16 0.00 0.00

Powered by AerisWeather